Weather in Rezh

Russia / Sverdlovsk Oblast     57°22′25″N   61°23′29″E
temp.,
°C
wind,
m/s
gust,
m/s
humid.,
%
clouds,
%
prec.,
mm/h
press.,
hPa
HPBL,
m
10 may, mon
mon1023:00+14ene275771 0.0 1019137
02:00+12ese2968100 0.0 1020196
05:00+11ese2772100 0.1 1022135
08:00+15e355024 0.0 1023385
11:00+19e45335 0.0 10241335
14:00+21e45255 0.0 10241979
17:00+21e44255 0.0 10241884
20:00+17se36385 0.0 1025157
11 may, tue
tue1123:00+12sse224664 0.0 102633
02:00+10sw225150 0.0 102715
05:00+9sw22525 0.0 102816
08:00+14ssw233999 0.0 1028299
11:00+19ssw2327100 0.0 10281120
14:00+21sw2224100 0.0 10271479
17:00+22wsw23255 0.0 10271676
20:00+18ssw234058 0.0 102754
12 may, wed
wed1223:00+16wnw1248100 0.0 102744
02:00+13nnw2780100 0.0 1028182
05:00+11nnw278086 0.0 1029165
08:00+15nnw35515 0.0 1029444
11:00+19nnw34355 0.0 10291302
14:00+21nnw343096 0.0 10281842
17:00+22nnw343128 0.0 10281839
20:00+19wnw114674 0.0 102711
13 may, thu
thu1323:00+15nw225699 0.0 102832
02:00+13nnw2370100 0.0 102851
05:00+12nw22748 0.0 102928
08:00+18wnw245585 0.0 1028311
11:00+22nw35405 0.0 10271492
14:00+25nw453230 0.0 10262154
17:00+26nw452951 0.0 10252340
20:00+21wnw2346100 0.0 102646
14 may, fri
fri1423:00+17wnw225060 0.0 102611
02:00+15wnw11653 0.0 102611
05:00+14w22715 0.0 102614
08:00+20w24502 0.0 1026273
11:00+25w3535100 0.0 10251955
14:00+27wnw46295 0.0 10232769
17:00+28wnw462553 0.0 10222944
20:00+22wnw254348 0.0 1022106